User: anonymous   Login
Location: Anjeux
(47.8815°N, 6.2076°E)
Time: 13:15:07
(UTC+00:00)
Language:

AO-27 - Orbit

View from above orbital plane
View from above orbital plane
View from above satellite
View from above satellite

Ground track
Ground track

The orbit data is extracted from the following two-line orbital elements,

1 22825U 93061C   21342.93745476 -.00000005  00000-0  15901-4 0  9991
2 22825  98.9069   4.7488 0007528 243.6185 116.4224 14.30134372470924
Epoch (UTC): 08 December 2021 22:29:56
Eccentricity: 0.0007528
inclination: 98.9069°
perigee height: 786 km
apogee height: 796 km
right ascension of ascending node: 4.7488°
argument of perigee: 243.6185°
revolutions per day: 14.30134372
mean anomaly at epoch: 116.4224°
orbit number at epoch: 47092

The dashed part of the orbit path shows where the satellite is in the earth's shadow,  

DLR